Other Public Products
Issued by NWS Grand Forks, ND

Home | Current Version | Previous Version | Graphics & Text | Print | Product List | Glossary On
Versions: 1 2 3 4 5 6 7 8 9 10 11 12 13 14 15 16 17 18 19 20 21 22 23 24 25 26 27 28 29 30 31 32 33 34 35 36 37 38 39 40 41 42 43 44 45 46 47 48 49 50
000
FPUS83 KFGF 302110
OPUFGF
PRAIRIE TO PINES WEATHER ROUNDUP
NATIONAL WEATHER SERVICE EASTERN NORTH DAKOTA/GRAND FORKS ND
400 PM CDT MON MAY 30 2016

 **SATELLITE DATA USED TO AUGMENT SKY COVER AT AUTOMATED STATIONS**
 *****  WEATHER ACROSS EASTERN NORTH DAKOTA  *****

CITY           SKY/WX    TMP DP  RH WIND       PRES   REMARKS
GRAND FORKS    CLOUDY    76  55  48 NE7       29.84F THUNDER
GRAND FORKS AF TSTM      66  55  68 NW16G26   29.88R VSB 3/4
GRAND CITY NWS   N/A     73 N/A N/A E6          N/A
BUXTON           N/A     84  54  35 E5          N/A
DEVILS LAKE    HVY RAIN  61  51  70 NE8       29.89F
FARGO          MOSUNNY   85  45  24 S14G33    29.83F
WAHPETON ARPT  MOCLDY    86  41  20 S13G24    29.83F
$$

 *****  WEATHER ACROSS CENTRAL AND WESTERN NORTH DAKOTA  *****

CITY           SKY/WX    TMP DP  RH WIND       PRES   REMARKS
JAMESTOWN      MOSUNNY   79  51  37 SE16G23   29.79F
BISMARCK       CLOUDY    73  57  57 N16       29.78F
MINOT          CLOUDY    65  52  62 W10       29.87F
MINOT AFB      CLOUDY    63  51  65 NW15      29.85F
GARRISON         N/A     57  54  89 NW15      29.88F
WILLISTON      LGT RAIN  58  52  80 N9        29.92F
DICKINSON      LGT RAIN  55  53  93 N12       29.85F
HETTINGER      LGT RAIN  54  52  93 E6        29.88S FOG
$$

 *****  OTHER OBSERVATIONS NORTHEAST NORTH DAKOTA  *****

CITY           SKY/WX    TMP DP  RH WIND       PRES   REMARKS
WALHALLA       FAIR      77  73  88 E9        29.88R
LANGDON        FAIR      75  50  41 E13       29.89S
CAVALIER       FAIR      77  46  33 CALM      29.87S
GRAFTON        FAIR      77  54  44 SE7       29.87F
CANDO          FAIR      70  50  49 S22G31    29.89F
FORT TOTTEN      N/A     60  58  92 N7        29.95S
ROLLA            N/A     73  41  31 E14       29.90S
RUGBY          FAIR      72  52  49 S21       29.86F
 ***** THE ABOVE OBSERVATIONS ARE NON NWS ARE NOT QUALITY
        CONTROLLED AND MAY MIS-REPORT RAIN FOR SNOW...
$$

 *****  OTHER OBSERVATIONS SOUTHEAST NORTH DAKOTA *****

CITY           SKY/WX    TMP DP  RH WIND       PRES   REMARKS
COOPERSTOWN    NOT AVBL
VALLEY CITY    FAIR      81  52  36 S10G18    29.84F
OAKES            N/A    N/A N/A N/A MISG        N/A
GWINNER        FAIR      84  54  34 S15       29.82F
SHEYENNE NWR     N/A     87  50  27 S10       29.95S
BUFFALO          N/A     84  44  24 S13         N/A
WYNDMERE         N/A     86  48  26 S13         N/A
 ***** THE ABOVE OBSERVATIONS ARE NON NWS ARE NOT QUALITY
       CONTROLLED AND MAY MIS-REPORT RAIN FOR SNOW...
$$

  *****  WEATHER ACROSS NORTHERN MINNESOTA  *****

CITY           SKY/WX    TMP DP  RH WIND       PRES   REMARKS
FLAG ISLAND    MOSUNNY   70  46  43 NE7       29.93R
WARROAD        SUNNY     70  57  64 NE13      29.92S
ROSEAU         SUNNY     79  52  38 SW3       29.90S
HALLOCK        MOSUNNY   81  41  24 SE8       29.86S
THF RVR FALLS  MOSUNNY   75  50  41 SE7       29.90S
HALSTAD        NOT AVBL
FOSSTON        SUNNY     81  57  44 N5        29.90S
BAUDETTE       SUNNY     78  44  29 N5        29.91F
WASKISH        MOSUNNY   77  46  33 SW7       29.92S
CROOKSTON      CLOUDY    79  55  44 SE5       29.86F
$$
  *****  WEATHER ACROSS CENTRAL AND WEST MINNESOTA  *****

CITY           SKY/WX    TMP DP  RH WIND       PRES   REMARKS
BEMIDJI        MOSUNNY   78  47  33 E9        29.91S
PARK RAPIDS    CLOUDY    80  47  31 S7        29.90F
WADENA         MOSUNNY   81  52  36 S9G18     29.90F
DETROIT LAKES  MOSUNNY   81  46  30 S10G17    29.90F
MOORHEAD       CLOUDY    82  46  28 S8        29.84F
FERGUS FALLS   MOSUNNY   82  46  28 S14G21    29.83S
ELBOW LAKE     FAIR      83  53  35 SE12G17   29.88F
MORRIS MN      CLOUDY    81  55  41 S12       29.85F
STAPLES        MOSUNNY   79  46  31 S9G17     29.91F
WHEATON        CLOUDY    86  55  35 SE10      29.85F
$$
  *****  WEATHER ELSEWHERE ACROSS MINNESOTA  *****

CITY           SKY/WX    TMP DP  RH WIND       PRES   REMARKS
DULUTH         MOSUNNY   80  44  27 CALM      29.94F
INTRNTL FALLS  MOSUNNY   74  51  44 N10       29.93F
ELY            MOSUNNY   73  45  35 N5        29.96S
CLOQUET        MOSUNNY   79  39  24 SW7       29.94F
BRAINERD       CLOUDY    80  51  36 S14       29.92F
HIBBING        SUNNY     76  42  29 SW6       29.94F
ALEXANDRIA     CLOUDY    79  53  40 S13       29.92F
SAINT CLOUD    MOSUNNY   81  51  35 S12       29.93F
MINNEAPOLIS    MOSUNNY   83  51  33 SE9       29.94F
$$

  *****  WEATHER ACROSS SOUTH DAKOTA  *****

CITY           SKY/WX    TMP DP  RH WIND       PRES   REMARKS
SIOUX FALLS    CLOUDY    80  60  50 S12       29.86F
BROOKINGS      MOSUNNY   79  58  48 S14       29.87F
WATERTOWN      PTSUNNY   81  51  35 SE20G26   29.85F
HURON          PTSUNNY   79  62  56 S18G24    29.81F
SISSETON         N/A     84  50  30 S14       29.82F
ABERDEEN       CLOUDY    85  53  33 SE23G30   29.78F
MITCHELL       MOSUNNY   81  62  52 S12       29.83F
PIERRE         SUNNY     83  57  41 S21       29.73F
MOBRIDGE       CLOUDY    64  57  78 E21G26    29.73F
RAPID CITY     CLOUDY    67  52  58 NW28G41   29.87R
$$

  *****  SOME WEATHER IN NEARBY STATES *****

CITY           SKY/WX    TMP DP  RH WIND       PRES   REMARKS
GLASGOW MT     CLOUDY    56  51  84 NW13      29.96F
GREAT FALLS MT CLOUDY    58  33  39 NW16G23   30.13S
CHEYENNE WY    CLOUDY    57  47  69 N3        30.06R
SCOTTSBLUFF NE CLOUDY    73  41  31 SW13G22   29.94R
OMAHA NE       PTSUNNY   87  63  44 SE20      29.87F
DES MOINES IA  MOSUNNY   87  59  38 S15       29.92F
DAVENPORT IA   SUNNY     84  54  35 S8        29.98F
CHICAGO IL     MOSUNNY   87  51  28 NW8       29.96F
EAU CLAIRE WI  SUNNY     82  50  32 VRB6      29.96F
LA CROSSE WI   SUNNY     83  49  30 SE5       29.97S
$$

  *****  SOME NATIONAL WEATHER *****

CITY           SKY/WX    TMP DP  RH WIND       PRES   REMARKS
LA GUARDIA NY  CLOUDY    77  73  87 S9        29.92S
RALEIGH NC     PTSUNNY   73  70  90 NE8       29.93S THUNDER
ATLANTA GA     MOSUNNY   92  54  27 NW15G21   29.95F HX  90
NEW ORLEANS LA PTSUNNY   80  70  71 SW6       29.98F THUNDER
OKLAHOMA CITY  MOSUNNY   80  64  58 SE5       29.94F
ALBUQUERQUE NM PTSUNNY   81  23  11 VRB7      30.02F
SALT LAKE CITY MOSUNNY   77  41  27 N14G22    30.07F
LOS ANGELES CA MOSUNNY   68  56  65 W14       29.97F
BOISE ID       MOSUNNY   72  34  24 NW20      30.11F
SEATTLE WA     MOSUNNY   68  44  42 NW10      30.27F
$$

*** WEATHER ACROSS MANITOBA...SASKATCHEWAN AND ONTARIO ***
                ***ONTARIO***

CITY           SKY/WX    TMP DP  RH WIND       PRES   REMARKS
GERALDTON      CLOUDY    46  45  93 NW12G17   29.94R
THUNDER BAY    MOSUNNY   70  48  46 NW17      29.93R
SIOUX LOOKOUT  PTSUNNY   59  46  63 E5        30.04R
TORONTO        PTSUNNY   79  48  34 NW21      29.92S
BIG TROUT LK   SUNNY     57  23  26 NE9G18    30.08R
PICKLE LAKE    PTSUNNY   55  43  62 NE6       30.04R
DRYDEN         SUNNY     61  48  63 NE12G17   30.01R
KENORA         NOT AVBL
$$
                *** MANITOBA***

CITY           SKY/WX    TMP DP  RH WIND       PRES   REMARKS
BRANDON        CLOUDY    75  48  38 SE3       29.87S
DAUPHIN        CLOUDY    63  54  72 NE10      29.94F
ISLAND LAKE    CLOUDY    57  37  47 S5        30.09S
PILOT MOUND    NOT AVBL
THE PAS        CLOUDY    59  48  67 E12G17    30.02R
THOMPSON       PTSUNNY   55  41  58 NE13      30.13F
WINNIPEG       MOSUNNY   77  52  41 NE9       29.89S
LYNN LAKE      CLOUDY    41  41 100 E9        30.15S FOG
CHURCHILL      PTSUNNY   34  28  80 E13G22    30.35R WCI  25
GILLAM         MOSUNNY   52  32  46 E7        30.19S
$$
                ***SASKATCHEWAN***

CITY           SKY/WX    TMP DP  RH WIND       PRES   REMARKS
ESTEVAN        LGT RAIN  63  52  67 SW21G31   29.90S
KINDERSLEY     CLOUDY    57  50  77 N15       29.95R
LLOYDMINSTER   CLOUDY    57  48  72 N9        30.03R
PRINCE ALBERT  PTSUNNY   63  46  55 E6        29.98S
REGINA         CLOUDY    70  45  40 S9        29.86S
YORKTON        SUNNY     70  52  52 NE16G22   29.90F   C1F1C2F2C3F3C4F4C5F5C6F6C7F7C8F8C9F9CaFaCbFbCcFcCdFdCe!


USA.gov is the U.S. government's official web portal to all federal, state and local government web resources and services.